Showing default

BISONSAT, 40968

Orbit data source: Space-Track

BISONSAT, 40968 is a payload satellite owned by Salish Kootenai (US) in LEO that was launched on Thu, 08 Oct 2015 UTC via an ATLAS V 401 launch vehicle from the Air Force Western Test Range (AFWTR). Payloads include a variety of satellites, spacecraft, and rockets equipped with specific instruments for various scientific and technological missions. These include communications satellites like Starlink; space stations such as the ISS; scientific satellites like the Hubble; Earth observation satellites from companies like Planet Labs, Umbra, and HawkEye 360; GPS; miniature CubeSats for education and research; and military/defense satellites.

Loading next visibility...
BISONSAT details
Identifier
40968, 2015-058E
Orbit
LEO
Last TLE update14 hours ago
Origin
Flag of USSalish Kootenai (US)
ManufacturerSalish Kootenai
MissionOperational Amateur Technology
Bus & MotorCUBESAT 1U, Unknown motor
Mass1 kg wet, 1 kg dry
Launch date (UTC)
2015-10-08 (9 years ago)
Launch vehicle
ATLAS V 401
Launch site
Air Force Western Test Range (AFWTR)
Object type
Payload
Rocket body
Debris
Shape & HBRBox, 0.1 m
Radar Cross Section0.015 m², Small (<0.1 m²)

Expand to show TLE details & history

TLE from 14 hours ago
0 BISONSAT
1 40968U 15058E   25018.45835312  .00011857  00000-0  95798-3 0  9996
2 40968  64.7766  63.8138 0172013 238.6906 119.7269 14.89222905 39810
Epoch: 2025-01-18T11:00Z
Definitive object data (Epoch: 2025-01-18T11:00:01.709Z)
Latitude0.00005°
Longitude140.69935°
Altitude663.434 km
Speed7.493 km/s
True Right ascension04h 15m 15s
True Declination0° 00' 00"
Sunlit
Object was in full shadow at TLE epoch
Visualization TLE readout
Latitude11.57428°
Longitude-46.56975°
Altitude561.32 km
Speed7.604 km/s
Apparent Right ascension14h 50m 59s
Apparent Declination-13° 27' 40"
Sunlit
Object is in daylight
Visualization observer readout
Local Sidereal Time01:33:39
Azimuth321.881° NNW
Elevation-58.564°
Doppler factor1
Orbital elements
Apogee altitude718.944 km
Perigee altitude478.915 km
Semi-major axis6,977.067 km
Eccentricity0.0172013
Inclination64.7766°
RAAN63.8138°
Arg. of periapsis238.6906°
True anomaly121.42031°
Mean anomaly119.7269°
Eccentric anomaly120.57543°
Mean motion3.72421 °/min
BSTAR0.00095798
Orbital period96.66 mins
Loading maneuver chart data...
Loading historical data...
Loading historical data...
Loading historical data...
Loading historical data...
Loading historical data...
Loading historical data...
Loading historical data...

BISONSAT Visibility forecast

Observer location: undefined°, undefined

Span
Click to sort rows by Start time (UTC) header in descending order
Start Az.
Max El. time (UTC)
Max El. Az.
Max El.
End time (UTC)
End Az.
4 mins2025-01-19 03:15:27.387Z134.183° SE2025-01-19 03:17:27.387Z108.89° ESE14.126°2025-01-19 03:19:27.387Z83.181° E
8 mins2025-01-19 04:53:27.387Z223.3° SW2025-01-19 04:56:27.387Z296.259° NW43.309°2025-01-19 05:01:27.387Z27.616° NE
7 mins2025-01-19 13:21:27.387Z334.886° NNW2025-01-19 13:24:27.387Z95.93° ESE43.434°2025-01-19 13:28:27.387Z143.181° SSE
|